Location: Shenandoah County Park
(38.9356°N, 78.4524°W)
Time: 22:45:48
(UTC-05:00)

SR - All Passes

Search period start: 07 February 2023 00:00
Search period end: 17 February 2023 00:00
Orbit: 581 x 869 km, 66.7° (Epoch: 07 February)

Date Brightness Start Highest point End Pass type
(mag) Time Alt. Az. Time Alt. Az. Time Alt. Az.
07 Feb - 00:08:00 10° WNW 00:10:31 16° WSW 00:13:04 10° SW night (unlit)
07 Feb - 12:52:39 10° S 12:57:36 42° ESE 13:02:12 10° NE daylight
07 Feb - 14:35:33 10° WSW 14:39:41 24° NW 14:43:36 10° N daylight
07 Feb - 21:35:06 10° N 21:38:17 20° NE 21:41:26 10° E night (unlit)
07 Feb - 23:16:26 10° NW 23:20:21 37° WSW 23:24:16 10° S night (unlit)
08 Feb - 12:03:37 10° SSE 12:07:21 20° ESE 12:10:53 10° ENE daylight
08 Feb - 13:44:02 10° SW 13:49:03 48° WNW 13:53:41 10° NNE daylight
08 Feb - 22:25:44 10° NNW 22:30:00 88° ENE 22:34:16 10° SSE night (unlit)
09 Feb - 12:53:18 10° SSW 12:58:33 81° ESE 13:03:23 10° NNE daylight
09 Feb - 14:38:22 10° W 14:41:01 14° NW 14:43:34 10° NNW daylight
09 Feb - 21:35:31 10° NNW 21:39:29 37° NE 21:43:26 10° SE night (unlit)
09 Feb - 23:18:15 10° WNW 23:21:06 18° WSW 23:24:01 10° SSW night (unlit)
10 Feb - 12:03:23 10° S 12:08:11 37° ESE 12:12:39 10° NE daylight
10 Feb - 13:45:54 10° WSW 13:50:12 27° NW 13:54:14 10° N daylight
10 Feb - 20:45:49 10° N 20:48:45 18° NE 20:51:42 10° E visible
10 Feb - 22:26:53 10° NW 22:30:54 42° WSW 22:34:57 10° S night (unlit)
11 Feb - 11:14:34 10° SSE 11:17:56 17° ESE 11:21:09 10° ENE daylight
11 Feb - 12:54:30 10° SW 12:59:35 54° WNW 13:04:15 10° NNE daylight
11 Feb - 21:36:17 10° NNW 21:40:32 77° ENE 21:44:47 10° SSE night (unlit)
12 Feb - 12:03:54 10° SSW 12:09:06 72° ESE 12:13:53 10° NNE daylight
12 Feb - 13:48:31 10° W 13:51:29 16° NW 13:54:19 10° N daylight
12 Feb - 20:46:07 10° N 20:49:58 33° NE 20:53:50 10° ESE visible
12 Feb - 22:28:32 10° WNW 22:31:41 20° WSW 22:34:52 10° SSW night (unlit)
13 Feb - 11:14:07 10° S 11:18:44 33° ESE 11:23:03 10° NE daylight
13 Feb - 12:56:16 10° WSW 13:00:41 29° NW 13:04:50 10° N daylight
13 Feb - 19:56:32 10° N 19:59:13 16° NE 20:01:53 10° E visible
13 Feb - 21:37:20 10° NW 21:41:26 49° WSW 21:45:34 10° S visible
14 Feb - 10:25:35 10° SE 10:28:30 15° ESE 10:31:19 10° ENE daylight
14 Feb - 12:05:00 10° SW 12:10:05 60° WNW 12:14:47 10° NNE daylight
14 Feb - 20:46:48 10° NNW 20:51:02 67° ENE 20:55:17 10° SE visible
15 Feb - 11:14:30 10° SSW 11:19:38 63° ESE 11:24:21 10° NE daylight
15 Feb - 12:58:42 10° W 13:01:56 17° NW 13:05:01 10° N daylight
15 Feb - 19:56:42 10° N 20:00:26 29° NE 20:04:10 10° ESE visible
15 Feb - 21:38:50 10° WNW 21:42:13 23° WSW 21:45:39 10° SSW visible
16 Feb - 10:24:51 10° S 10:29:17 29° ESE 10:33:25 10° NE daylight
16 Feb - 12:06:37 10° WSW 12:11:10 32° NW 12:15:24 10° N daylight
16 Feb - 19:07:15 10° NNE 19:09:38 14° NE 19:12:00 10° E visible
16 Feb - 20:47:47 10° NW 20:51:56 57° WSW 20:56:09 10° SSE visible
